QPF
0.00 0.00 0.00 0.00 0.00 0.00 0.00 0.00 0.00 0.00 0.00 0.00 0.01 0.01 0.01 0.01 0.01 0.02 0.03 0.06 0.09 0.07 0.06 0.06 0.06 0.07 0.05 0.04 0.05 0.06 0.07 0.08 0.08 0.10 0.12 0.12 0.13 0.12 0.12 0.13 0.13 0.14 0.15 0.14
0.00 0.01 0.01 0.00 0.00 0.00 0.00 0.00 0.00 0.00 0.01 0.01 0.01 0.01 0.01 0.01 0.01 0.02 0.02 0.03 0.04 0.04 0.05 0.05 0.05 0.06 0.05 0.04 0.04 0.05 0.05 0.05 0.06 0.08 0.11 0.12 0.14 0.14 0.13 0.14 0.12 0.11 0.10 0.11
0.00 0.01 0.00 0.01 0.01 0.00 0.00 0.00 0.00 0.00 0.00 0.00 0.01 0.01 0.01 0.01 0.01 0.02 0.02 0.02 0.02 0.03 0.04 0.05 0.05 0.05 0.06 0.05 0.04 0.04 0.04 0.03 0.04 0.07 0.09 0.12 0.14 0.16 0.14 0.13 0.11 0.10 0.10 0.11
0.00 0.01 0.01 0.01 0.01 0.01 0.01 0.00 0.00 0.00 0.00 0.01 0.01 0.01 0.01 0.01 0.01 0.01 0.01 0.01 0.01 0.02 0.03 0.04 0.07 0.06 0.06 0.05 0.05 0.05 0.03 0.03 0.04 0.06 0.07 0.09 0.13 0.15 0.16 0.15 0.12 0.11 0.10 0.10
0.00 0.00 0.01 0.02 0.02 0.02 0.01 0.01 0.01 0.01 0.01 0.01 0.01 0.01 0.02 0.02 0.02 0.01 0.01 0.02 0.03 0.03 0.05 0.08 0.10 0.07 0.07 0.06 0.06 0.05 0.04 0.04 0.05 0.06 0.06 0.07 0.07 0.09 0.11 0.14 0.13 0.12 0.12 0.10
0.01 0.01 0.00 0.01 0.03 0.02 0.02 0.02 0.01 0.01 0.01 0.01 0.02 0.02 0.02 0.03 0.03 0.03 0.03 0.03 0.05 0.07 0.10 0.12 0.12 0.11 0.08 0.07 0.06 0.06 0.04 0.05 0.08 0.09 0.09 0.08 0.09 0.09 0.09 0.08 0.08 0.10 0.12 0.12
0.01 0.01 0.01 0.01 0.03 0.03 0.02 0.01 0.02 0.02 0.02 0.01 0.02 0.03 0.03 0.03 0.03 0.03 0.04 0.04 0.05 0.06 0.08 0.10 0.11 0.10 0.09 0.08 0.07 0.05 0.06 0.06 0.09 0.11 0.12 0.15 0.17 0.15 0.14 0.13 0.14 0.15 0.14 0.15
0.01 0.01 0.01 0.01 0.03 0.03 0.02 0.01 0.02 0.04 0.04 0.03 0.03 0.03 0.04 0.04 0.03 0.03 0.03 0.04 0.05 0.05 0.06 0.08 0.10 0.09 0.10 0.09 0.07 0.06 0.05 0.05 0.07 0.12 0.14 0.17 0.20 0.20 0.19 0.19 0.19 0.19 0.20 0.19
0.02 0.01 0.01 0.02 0.02 0.03 0.02 0.02 0.02 0.04 0.05 0.05 0.05 0.04 0.04 0.05 0.05 0.04 0.04 0.04 0.05 0.05 0.05 0.08 0.10 0.12 0.12 0.08 0.07 0.07 0.06 0.05 0.06 0.07 0.10 0.14 0.15 0.15 0.14 0.15 0.16 0.16 0.16 0.16
0.03 0.03 0.03 0.02 0.03 0.03 0.03 0.03 0.03 0.03 0.04 0.05 0.06 0.06 0.06 0.07 0.05 0.05 0.05 0.04 0.05 0.05 0.05 0.04 0.05 0.08 0.11 0.09 0.07 0.07 0.08 0.07 0.05 0.05 0.06 0.08 0.10 0.11 0.13 0.14 0.14 0.12 0.10 0.09
0.04 0.04 0.04 0.04 0.03 0.03 0.04 0.04 0.04 0.03 0.03 0.03 0.05 0.06 0.07 0.07 0.05 0.04 0.04 0.04 0.05 0.06 0.05 0.05 0.05 0.05 0.06 0.06 0.05 0.06 0.06 0.07 0.08 0.06 0.05 0.06 0.06 0.07 0.09 0.10 0.11 0.10 0.08 0.07
0.04 0.04 0.04 0.04 0.04 0.04 0.04 0.03 0.04 0.03 0.02 0.02 0.03 0.04 0.04 0.05 0.04 0.03 0.03 0.03 0.03 0.04 0.05 0.05 0.04 0.04 0.04 0.03 0.03 0.03 0.03 0.04 0.06 0.07 0.07 0.07 0.08 0.08 0.09 0.07 0.07 0.07 0.07 0.08
0.04 0.05 0.05 0.06 0.07 0.07 0.06 0.04 0.03 0.02 0.02 0.02 0.02 0.02 0.02 0.01 0.01 0.02 0.02 0.02 0.02 0.02 0.04 0.04 0.02 0.02 0.03 0.02 0.01 0.01 0.01 0.01 0.02 0.03 0.04 0.04 0.05 0.05 0.05 0.05 0.05 0.05 0.06 0.06
0.04 0.05 0.06 0.08 0.08 0.09 0.07 0.04 0.03 0.02 0.02 0.01 0.01 0.02 0.02 0.02 0.02 0.02 0.02 0.02 0.01 0.01 0.03 0.02 0.01 0.01 0.02 0.01 0.01 0.00 0.00 0.00 0.01 0.01 0.01 0.02 0.02 0.03 0.03 0.03 0.03 0.03 0.04 0.05
0.05 0.05 0.05 0.06 0.07 0.07 0.07 0.04 0.02 0.01 0.01 0.01 0.01 0.01 0.02 0.02 0.01 0.02 0.02 0.02 0.01 0.01 0.02 0.03 0.02 0.01 0.02 0.02 0.02 0.01 0.01 0.01 0.00 0.00 0.00 0.00 0.01 0.01 0.01 0.02 0.02 0.03 0.03 0.04
0.07 0.07 0.06 0.04 0.04 0.04 0.04 0.04 0.02 0.01 0.01 0.01 0.01 0.01 0.01 0.01 0.02 0.01 0.01 0.01 0.01 0.01 0.02 0.03 0.02 0.01 0.01 0.01 0.02 0.03 0.02 0.02 0.01 0.00 0.00 0.00 0.00 0.00 0.01 0.01 0.01 0.02 0.02 0.02
0.05 0.07 0.06 0.04 0.03 0.03 0.03 0.02 0.01 0.01 0.01 0.01 0.01 0.01 0.01 0.01 0.01 0.01 0.01 0.01 0.01 0.01 0.02 0.02 0.02 0.01 0.01 0.01 0.02 0.03 0.03 0.03 0.01 0.01 0.00 0.00 0.00 0.00 0.01 0.01 0.01 0.01 0.01 0.01
0.04 0.05 0.05 0.05 0.04 0.03 0.03 0.02 0.01 0.01 0.01 0.01 0.01 0.01 0.01 0.02 0.02 0.01 0.01 0.01 0.01 0.01 0.01 0.01 0.01 0.01 0.02 0.03 0.03 0.03 0.02 0.02 0.02 0.01 0.01 0.01 0.00 0.00 0.00 0.00 0.00 0.01 0.01 0.01
0.04 0.04 0.05 0.05 0.04 0.03 0.02 0.02 0.01 0.01 0.01 0.01 0.01 0.01 0.02 0.02 0.02 0.01 0.01 0.00 0.00 0.00 0.00 0.01 0.01 0.01 0.01 0.02 0.02 0.01 0.01 0.01 0.01 0.01 0.00 0.00 0.00 0.00 0.00 0.00 0.00 0.00 0.00 0.00
0.05 0.05 0.05 0.05 0.04 0.03 0.02 0.01 0.01 0.01 0.01 0.01 0.01 0.01 0.02 0.01 0.01 0.02 0.01 0.01 0.00 0.00 0.00 0.00 0.00 0.00 0.00 0.00 0.00 0.00 0.00 0.00 0.00 0.00 0.00 0.00 0.00 0.00 0.00 0.00 0.00 0.00 0.00 0.01
0.05 0.05 0.04 0.03 0.03 0.02 0.02 0.01 0.01 0.01 0.01 0.01 0.01 0.01 0.01 0.01 0.01 0.01 0.01 0.00 0.00 0.00 0.00 0.00 0.00 0.00 0.00 0.00 0.00 0.00 0.00 0.00 0.00 0.00 0.00 0.00 0.00 0.00 0.00 0.00 0.00 0.00 0.00 0.00
0.05 0.04 0.03 0.02 0.02 0.02 0.01 0.01 0.01 0.01 0.01 0.01 0.01 0.01 0.01 0.01 0.00 0.00 0.00 0.00 0.00 0.00 0.00 0.00 0.00 0.00 0.00 0.00 0.00 0.00 0.00 0.00 0.00 0.00 0.00 0.00 0.00 0.00 0.00 0.00 0.00 0.00 0.00 0.00
0.06 0.04 0.03 0.02 0.02 0.02 0.02 0.01 0.01 0.01 0.01 0.01 0.02 0.01 0.01 0.00 0.00 0.00 0.00 0.00 0.00 0.00 0.00 0.00 0.00 0.00 0.00 0.00 0.00 0.00 0.00 0.00 0.00 0.00 0.00 0.00 0.00 0.00 0.00 0.00 0.00 0.00 0.00 0.00
0.06 0.04 0.03 0.03 0.02 0.02 0.02 0.02 0.01 0.02 0.02 0.02 0.02 0.01 0.01 0.00 0.00 0.00 0.00 0.00 0.00 0.00 0.01 0.00 0.00 0.00 0.00 0.00 0.00 0.00 0.00 0.00 0.00 0.00 0.00 0.00 0.00 0.00 0.00 0.00 0.00 0.00 0.00 0.00
0.06 0.05 0.04 0.03 0.03 0.04 0.04 0.04 0.04 0.03 0.03 0.02 0.02 0.01 0.01 0.00 0.00 0.00 0.00 0.00 0.00 0.00 0.00 0.00 0.00 0.00 0.00 0.00 0.00 0.00 0.00 0.00 0.00 0.00 0.00 0.00 0.00 0.00 0.00 0.00 0.00 0.00 0.00 0.00
0.07 0.06 0.06 0.05 0.04 0.04 0.04 0.05 0.05 0.04 0.03 0.03 0.02 0.01 0.01 0.01 0.00 0.00 0.00 0.00 0.00 0.00 0.00 0.00 0.00 0.00 0.00 0.00 0.00 0.00 0.00 0.00 0.00 0.00 0.00 0.00 0.00 0.00 0.00 0.00 0.00 0.00 0.00 0.00
0.09 0.07 0.06 0.05 0.04 0.04 0.03 0.04 0.04 0.03 0.03 0.02 0.02 0.01 0.01 0.00 0.00 0.00 0.00 0.00 0.00 0.00 0.00 0.00 0.01 0.00 0.00 0.00 0.00 0.00 0.00 0.00 0.00 0.00 0.00 0.00 0.00 0.00 0.00 0.00 0.00 0.00 0.00 0.00
MSLP
1006.59 1007.07 1007.62 1008.18 1008.71 1009.16 1009.50 1009.69 1009.74 1009.67 1009.50 1009.29 1009.08 1008.91 1008.83 1008.82 1008.89 1009.02 1009.17 1009.30 1009.38 1009.40 1009.35 1009.23 1009.08 1008.91 1008.75 1008.63 1008.57 1008.56 1008.61 1008.71 1008.87 1009.06 1009.30 1009.58 1009.89 1010.25 1010.64 1011.06 1011.50 1011.95 1012.39 1012.80
1007.06 1007.52 1007.97 1008.39 1008.74 1009.01 1009.17 1009.23 1009.23 1009.17 1009.10 1009.05 1009.05 1009.11 1009.21 1009.36 1009.52 1009.66 1009.75 1009.77 1009.72 1009.61 1009.44 1009.25 1009.07 1008.92 1008.83 1008.80 1008.84 1008.93 1009.05 1009.20 1009.36 1009.53 1009.70 1009.90 1010.12 1010.38 1010.68 1011.02 1011.40 1011.79 1012.18 1012.56
1007.66 1008.09 1008.46 1008.75 1008.94 1009.03 1009.05 1009.00 1008.95 1008.93 1008.96 1009.07 1009.27 1009.53 1009.83 1010.12 1010.36 1010.52 1010.57 1010.50 1010.32 1010.07 1009.78 1009.49 1009.25 1009.09 1009.02 1009.04 1009.14 1009.28 1009.45 1009.62 1009.77 1009.90 1010.03 1010.15 1010.29 1010.48 1010.71 1010.99 1011.31 1011.65 1012.00 1012.33
1008.34 1008.73 1009.02 1009.19 1009.24 1009.19 1009.08 1008.96 1008.88 1008.89 1009.02 1009.28 1009.66 1010.11 1010.58 1011.01 1011.34 1011.53 1011.56 1011.42 1011.14 1010.77 1010.36 1009.98 1009.67 1009.47 1009.38 1009.40 1009.51 1009.67 1009.85 1010.01 1010.14 1010.24 1010.31 1010.38 1010.46 1010.59 1010.77 1011.01 1011.29 1011.59 1011.90 1012.19
1008.99 1009.33 1009.54 1009.61 1009.55 1009.40 1009.20 1009.02 1008.93 1008.98 1009.20 1009.59 1010.12 1010.73 1011.35 1011.91 1012.33 1012.57 1012.60 1012.42 1012.08 1011.63 1011.15 1010.69 1010.31 1010.06 1009.93 1009.93 1010.02 1010.16 1010.31 1010.45 1010.55 1010.61 1010.65 1010.68 1010.73 1010.82 1010.97 1011.18 1011.43 1011.70 1011.97 1012.21
1009.53 1009.81 1009.96 1009.95 1009.82 1009.59 1009.34 1009.14 1009.06 1009.15 1009.44 1009.93 1010.58 1011.32 1012.07 1012.73 1013.23 1013.52 1013.58 1013.41 1013.05 1012.58 1012.05 1011.55 1011.13 1010.83 1010.67 1010.63 1010.68 1010.79 1010.92 1011.02 1011.09 1011.13 1011.14 1011.15 1011.18 1011.26 1011.39 1011.58 1011.80 1012.04 1012.27 1012.46
1009.90 1010.13 1010.22 1010.17 1009.99 1009.74 1009.48 1009.29 1009.24 1009.37 1009.73 1010.29 1011.02 1011.85 1012.67 1013.41 1013.98 1014.33 1014.44 1014.30 1013.97 1013.51 1012.99 1012.49 1012.06 1011.75 1011.57 1011.50 1011.53 1011.61 1011.70 1011.78 1011.83 1011.85 1011.85 1011.85 1011.88 1011.95 1012.08 1012.25 1012.45 1012.66 1012.85 1012.99
1010.08 1010.27 1010.33 1010.27 1010.10 1009.87 1009.64 1009.49 1009.49 1009.67 1010.08 1010.69 1011.46 1012.32 1013.19 1013.97 1014.58 1014.98 1015.13 1015.05 1014.77 1014.37 1013.90 1013.44 1013.05 1012.75 1012.58 1012.51 1012.52 1012.59 1012.66 1012.73 1012.77 1012.79 1012.79 1012.80 1012.84 1012.91 1013.03 1013.19 1013.37 1013.54 1013.68 1013.77
1010.11 1010.27 1010.34 1010.31 1010.19 1010.02 1009.87 1009.79 1009.85 1010.09 1010.53 1011.16 1011.94 1012.80 1013.66 1014.44 1015.07 1015.49 1015.69 1015.67 1015.47 1015.14 1014.75 1014.37 1014.04 1013.79 1013.65 1013.60 1013.62 1013.69 1013.76 1013.83 1013.88 1013.91 1013.92 1013.94 1013.99 1014.07 1014.18 1014.33 1014.48 1014.62 1014.72 1014.76
1010.04 1010.21 1010.31 1010.34 1010.31 1010.25 1010.21 1010.23 1010.37 1010.67 1011.14 1011.77 1012.52 1013.34 1014.16 1014.91 1015.51 1015.94 1016.17 1016.21 1016.08 1015.84 1015.55 1015.25 1015.00 1014.81 1014.72 1014.70 1014.75 1014.83 1014.92 1015.00 1015.07 1015.11 1015.15 1015.19 1015.25 1015.33 1015.44 1015.57 1015.70 1015.81 1015.87 1015.87
1009.93 1010.13 1010.30 1010.43 1010.52 1010.60 1010.68 1010.83 1011.06 1011.42 1011.90 1012.52 1013.23 1013.99 1014.75 1015.43 1016.00 1016.41 1016.65 1016.73 1016.67 1016.51 1016.30 1016.09 1015.91 1015.80 1015.75 1015.77 1015.84 1015.94 1016.05 1016.15 1016.24 1016.31 1016.37 1016.43 1016.51 1016.60 1016.71 1016.82 1016.93 1017.01 1017.04 1017.01
1009.85 1010.11 1010.37 1010.62 1010.84 1011.06 1011.29 1011.56 1011.88 1012.30 1012.81 1013.40 1014.07 1014.76 1015.44 1016.05 1016.57 1016.95 1017.19 1017.30 1017.28 1017.19 1017.05 1016.91 1016.79 1016.72 1016.71 1016.75 1016.84 1016.95 1017.08 1017.20 1017.31 1017.40 1017.49 1017.58 1017.68 1017.78 1017.89 1018.00 1018.09 1018.15 1018.16 1018.11
1009.84 1010.17 1010.53 1010.90 1011.26 1011.61 1011.97 1012.35 1012.77 1013.24 1013.76 1014.35 1014.97 1015.60 1016.22 1016.77 1017.24 1017.59 1017.83 1017.95 1017.97 1017.92 1017.82 1017.72 1017.64 1017.60 1017.60 1017.65 1017.73 1017.85 1017.98 1018.11 1018.24 1018.36 1018.48 1018.60 1018.72 1018.84 1018.95 1019.06 1019.14 1019.19 1019.18 1019.13
1009.93 1010.34 1010.79 1011.26 1011.73 1012.20 1012.67 1013.14 1013.63 1014.14 1014.69 1015.27 1015.86 1016.46 1017.03 1017.55 1017.98 1018.33 1018.56 1018.69 1018.73 1018.71 1018.64 1018.56 1018.48 1018.43 1018.42 1018.45 1018.52 1018.62 1018.75 1018.89 1019.03 1019.18 1019.33 1019.48 1019.63 1019.77 1019.90 1020.01 1020.09 1020.13 1020.12 1020.07
1010.12 1010.60 1011.12 1011.67 1012.22 1012.77 1013.31 1013.84 1014.38 1014.94 1015.50 1016.09 1016.68 1017.26 1017.82 1018.33 1018.76 1019.11 1019.35 1019.50 1019.56 1019.55 1019.49 1019.40 1019.31 1019.24 1019.20 1019.20 1019.23 1019.32 1019.43 1019.57 1019.74 1019.91 1020.10 1020.28 1020.46 1020.63 1020.78 1020.89 1020.97 1021.01 1020.99 1020.93
1010.42 1010.95 1011.52 1012.11 1012.70 1013.29 1013.86 1014.43 1015.00 1015.58 1016.16 1016.76 1017.37 1017.97 1018.54 1019.06 1019.52 1019.89 1020.17 1020.34 1020.42 1020.42 1020.35 1020.25 1020.13 1020.03 1019.94 1019.90 1019.91 1019.97 1020.07 1020.22 1020.40 1020.61 1020.83 1021.05 1021.26 1021.46 1021.62 1021.75 1021.83 1021.86 1021.83 1021.76
1010.81 1011.38 1011.97 1012.57 1013.17 1013.75 1014.33 1014.90 1015.48 1016.07 1016.67 1017.30 1017.93 1018.56 1019.16 1019.73 1020.23 1020.64 1020.95 1021.15 1021.25 1021.26 1021.19 1021.08 1020.94 1020.79 1020.68 1020.60 1020.58 1020.62 1020.72 1020.88 1021.08 1021.32 1021.57 1021.83 1022.08 1022.29 1022.47 1022.60 1022.67 1022.69 1022.65 1022.56
1011.29 1011.87 1012.47 1013.05 1013.63 1014.19 1014.75 1015.30 1015.87 1016.46 1017.08 1017.72 1018.39 1019.06 1019.71 1020.32 1020.86 1021.32 1021.67 1021.91 1022.03 1022.05 1021.98 1021.86 1021.70 1021.53 1021.40 1021.30 1021.27 1021.31 1021.41 1021.59 1021.81 1022.08 1022.36 1022.65 1022.91 1023.14 1023.32 1023.44 1023.51 1023.51 1023.44 1023.34
1011.83 1012.43 1013.01 1013.57 1014.11 1014.64 1015.16 1015.69 1016.24 1016.83 1017.46 1018.12 1018.81 1019.52 1020.21 1020.86 1021.44 1021.94 1022.32 1022.58 1022.72 1022.75 1022.69 1022.57 1022.41 1022.24 1022.10 1022.01 1021.99 1022.04 1022.16 1022.35 1022.60 1022.89 1023.19 1023.49 1023.76 1023.98 1024.16 1024.27 1024.31 1024.28 1024.20 1024.07
1012.41 1013.01 1013.58 1014.12 1014.63 1015.12 1015.61 1016.12 1016.66 1017.24 1017.87 1018.55 1019.26 1019.98 1020.70 1021.37 1021.98 1022.49 1022.89 1023.17 1023.32 1023.37 1023.32 1023.21 1023.06 1022.92 1022.80 1022.73 1022.73 1022.80 1022.95 1023.17 1023.43 1023.73 1024.03 1024.32 1024.58 1024.79 1024.94 1025.02 1025.04 1025.00 1024.90 1024.75
1012.99 1013.60 1014.17 1014.69 1015.18 1015.65 1016.12 1016.62 1017.15 1017.73 1018.37 1019.05 1019.77 1020.50 1021.21 1021.89 1022.49 1023.00 1023.40 1023.68 1023.84 1023.90 1023.87 1023.79 1023.67 1023.56 1023.49 1023.46 1023.49 1023.60 1023.78 1024.01 1024.28 1024.57 1024.86 1025.12 1025.35 1025.53 1025.64 1025.70 1025.69 1025.62 1025.51 1025.37
1013.52 1014.15 1014.72 1015.24 1015.73 1016.20 1016.68 1017.18 1017.72 1018.31 1018.95 1019.64 1020.35 1021.07 1021.77 1022.42 1023.00 1023.49 1023.87 1024.14 1024.30 1024.37 1024.37 1024.32 1024.25 1024.20 1024.17 1024.19 1024.27 1024.42 1024.61 1024.85 1025.11 1025.38 1025.64 1025.86 1026.04 1026.18 1026.25 1026.27 1026.24 1026.16 1026.05 1025.92
1013.99 1014.63 1015.22 1015.76 1016.26 1016.76 1017.26 1017.79 1018.35 1018.95 1019.60 1020.28 1020.98 1021.68 1022.35 1022.97 1023.51 1023.96 1024.32 1024.57 1024.73 1024.82 1024.84 1024.84 1024.82 1024.82 1024.85 1024.93 1025.06 1025.23 1025.44 1025.67 1025.91 1026.14 1026.35 1026.52 1026.65 1026.73 1026.76 1026.75 1026.70 1026.63 1026.53 1026.42
1014.36 1015.03 1015.64 1016.21 1016.75 1017.28 1017.82 1018.39 1018.98 1019.61 1020.27 1020.95 1021.64 1022.31 1022.94 1023.52 1024.02 1024.43 1024.76 1024.99 1025.15 1025.25 1025.31 1025.35 1025.39 1025.45 1025.54 1025.67 1025.83 1026.02 1026.23 1026.44 1026.65 1026.83 1026.98 1027.09 1027.16 1027.19 1027.18 1027.15 1027.10 1027.03 1026.95 1026.87
1014.66 1015.34 1015.98 1016.59 1017.17 1017.75 1018.34 1018.95 1019.59 1020.25 1020.92 1021.61 1022.28 1022.93 1023.52 1024.06 1024.52 1024.90 1025.19 1025.42 1025.58 1025.69 1025.79 1025.87 1025.96 1026.07 1026.21 1026.37 1026.56 1026.76 1026.96 1027.14 1027.30 1027.43 1027.52 1027.57 1027.58 1027.57 1027.53 1027.48 1027.43 1027.38 1027.33 1027.29
1014.93 1015.63 1016.29 1016.92 1017.55 1018.18 1018.82 1019.47 1020.15 1020.84 1021.53 1022.22 1022.88 1023.51 1024.07 1024.57 1025.00 1025.35 1025.62 1025.84 1026.00 1026.14 1026.26 1026.38 1026.51 1026.66 1026.83 1027.02 1027.21 1027.40 1027.57 1027.72 1027.83 1027.90 1027.94 1027.93 1027.90 1027.85 1027.79 1027.74 1027.69 1027.66 1027.65 1027.64
1015.23 1015.92 1016.59 1017.25 1017.91 1018.58 1019.26 1019.96 1020.66 1021.38 1022.09 1022.78 1023.43 1024.04 1024.58 1025.05 1025.45 1025.77 1026.03 1026.24 1026.41 1026.56 1026.69 1026.84 1026.99 1027.16 1027.35 1027.53 1027.72 1027.89 1028.03 1028.13 1028.19 1028.21 1028.20 1028.15 1028.08 1028.01 1027.94 1027.89 1027.86 1027.85 1027.86 1027.88
Thickness
5714 5724 5727 5728 5728 5727 5726 5720 5714 5721 5725 5736 5741 5743 5745 5745 5745 5745 5745 5745 5744 5744 5744 5744 5742 5741 5740 5738 5737 5736 5734 5732 5731 5731 5730 5728 5726 5725 5723 5722 5721 5719 5718 5716
5706 5717 5723 5721 5726 5727 5728 5726 5726 5727 5728 5739 5740 5740 5739 5740 5741 5740 5740 5741 5742 5741 5741 5740 5740 5738 5737 5736 5735 5733 5732 5730 5730 5729 5727 5725 5724 5722 5720 5719 5718 5716 5715 5714
5689 5704 5710 5701 5715 5721 5724 5727 5727 5724 5731 5734 5733 5734 5733 5734 5736 5736 5737 5736 5737 5736 5736 5736 5736 5735 5734 5732 5732 5730 5729 5729 5727 5726 5724 5723 5722 5720 5718 5716 5715 5713 5712 5710
5679 5690 5680 5700 5719 5723 5722 5723 5728 5730 5730 5730 5729 5728 5729 5730 5730 5730 5731 5732 5732 5732 5733 5733 5733 5732 5730 5730 5729 5728 5727 5726 5725 5724 5722 5721 5719 5717 5715 5713 5710 5708 5706 5705
5667 5670 5680 5699 5712 5714 5714 5714 5723 5724 5723 5724 5725 5725 5722 5724 5725 5725 5727 5728 5728 5729 5729 5729 5728 5728 5727 5726 5726 5725 5724 5724 5723 5722 5720 5717 5715 5713 5711 5708 5705 5703 5701 5699
5664 5665 5666 5692 5710 5716 5713 5705 5719 5719 5718 5718 5719 5712 5711 5716 5718 5719 5721 5723 5724 5725 5725 5724 5722 5723 5722 5721 5721 5720 5720 5721 5721 5719 5717 5714 5711 5709 5707 5704 5701 5698 5695 5694
5659 5663 5673 5693 5704 5709 5693 5701 5714 5715 5713 5712 5709 5708 5708 5710 5711 5712 5713 5714 5716 5717 5716 5716 5716 5717 5716 5715 5714 5715 5715 5716 5716 5715 5713 5710 5707 5705 5702 5698 5694 5691 5688 5686
5650 5655 5666 5689 5695 5694 5697 5705 5708 5708 5707 5705 5703 5703 5702 5703 5702 5703 5703 5704 5706 5707 5706 5707 5708 5709 5708 5706 5707 5708 5709 5709 5708 5707 5706 5704 5701 5697 5694 5691 5687 5683 5680 5677
5653 5659 5671 5680 5684 5690 5695 5697 5699 5700 5700 5699 5696 5694 5694 5693 5692 5693 5693 5694 5696 5696 5696 5697 5698 5699 5698 5697 5699 5700 5700 5699 5698 5697 5695 5694 5691 5688 5685 5682 5679 5675 5671 5668
5651 5659 5666 5672 5678 5684 5689 5691 5692 5693 5693 5693 5689 5686 5685 5684 5682 5682 5682 5683 5685 5687 5686 5686 5687 5689 5688 5688 5690 5690 5688 5686 5685 5684 5682 5680 5678 5676 5673 5671 5668 5665 5661 5658
5646 5653 5660 5665 5669 5675 5679 5682 5682 5682 5682 5682 5680 5677 5676 5673 5672 5671 5672 5673 5675 5675 5674 5674 5676 5677 5678 5679 5680 5679 5677 5675 5673 5671 5669 5666 5663 5659 5658 5655 5655 5653 5650 5648
5642 5650 5652 5655 5661 5667 5669 5669 5671 5671 5670 5669 5669 5667 5666 5663 5661 5661 5662 5662 5662 5662 5663 5663 5665 5665 5666 5668 5669 5668 5665 5663 5661 5659 5657 5654 5650 5645 5640 5640 5639 5638 5637 5635
5641 5645 5647 5651 5654 5658 5659 5660 5660 5660 5659 5657 5657 5657 5656 5653 5651 5651 5652 5651 5650 5651 5652 5653 5654 5654 5654 5656 5657 5656 5654 5651 5648 5647 5644 5642 5640 5637 5632 5627 5626 5624 5623 5622
5636 5639 5640 5643 5646 5649 5650 5650 5650 5649 5648 5648 5647 5646 5646 5644 5642 5642 5641 5640 5641 5641 5642 5643 5644 5643 5644 5646 5647 5645 5643 5641 5638 5635 5633 5631 5628 5626 5623 5619 5615 5610 5608 5607
5630 5635 5636 5637 5638 5639 5640 5640 5639 5638 5637 5636 5636 5636 5635 5633 5631 5630 5630 5631 5632 5631 5631 5632 5632 5631 5633 5635 5636 5634 5632 5629 5626 5624 5622 5619 5616 5613 5609 5606 5602 5599 5597 5595
5624 5628 5629 5630 5631 5632 5632 5632 5630 5627 5627 5626 5625 5624 5624 5622 5620 5619 5620 5621 5621 5619 5618 5620 5620 5620 5623 5624 5624 5622 5620 5618 5616 5613 5610 5607 5604 5601 5597 5594 5590 5587 5584 5581
5620 5621 5622 5623 5624 5624 5624 5623 5622 5620 5618 5616 5615 5614 5614 5613 5611 5609 5608 5609 5609 5608 5608 5609 5609 5610 5612 5613 5613 5611 5609 5606 5604 5601 5598 5595 5592 5588 5585 5582 5578 5574 5570 5567
5619 5621 5621 5620 5619 5618 5617 5616 5614 5612 5609 5608 5606 5606 5604 5603 5600 5599 5598 5600 5600 5599 5597 5598 5600 5601 5602 5602 5601 5599 5597 5595 5592 5589 5586 5582 5579 5576 5573 5569 5565 5561 5557 5554
5612 5613 5613 5613 5613 5612 5610 5608 5606 5603 5601 5600 5598 5596 5594 5592 5591 5590 5591 5591 5590 5588 5586 5588 5590 5592 5591 5590 5590 5588 5586 5584 5580 5577 5574 5570 5567 5563 5559 5556 5552 5548 5544 5541
5605 5606 5606 5605 5605 5604 5602 5600 5598 5595 5593 5592 5590 5587 5585 5583 5583 5582 5582 5579 5576 5576 5577 5580 5581 5581 5580 5579 5579 5577 5574 5572 5568 5565 5561 5558 5554 5550 5546 5543 5539 5534 5530 5526
5599 5599 5599 5599 5597 5596 5595 5593 5592 5589 5587 5586 5584 5580 5577 5575 5575 5575 5574 5571 5568 5569 5570 5571 5571 5571 5570 5569 5568 5566 5563 5559 5556 5552 5549 5545 5541 5537 5533 5529 5524 5520 5515 5511
5593 5594 5593 5593 5591 5588 5587 5586 5585 5583 5581 5579 5576 5574 5571 5568 5566 5565 5563 5562 5561 5562 5563 5562 5562 5561 5560 5559 5557 5554 5550 5547 5543 5539 5535 5531 5527 5523 5518 5514 5510 5505 5501 5496
5588 5588 5587 5586 5584 5581 5580 5579 5578 5576 5574 5571 5569 5567 5564 5561 5561 5561 5556 5554 5555 5555 5554 5553 5552 5551 5550 5548 5545 5542 5538 5534 5530 5526 5522 5517 5513 5509 5504 5500 5495 5491 5486 5482
5581 5581 5580 5579 5577 5575 5572 5570 5569 5567 5565 5563 5562 5560 5558 5556 5552 5551 5550 5548 5547 5547 5545 5543 5543 5541 5539 5536 5533 5529 5525 5522 5517 5513 5509 5504 5500 5496 5491 5486 5482 5477 5473 5469
5574 5574 5573 5572 5570 5567 5564 5562 5560 5558 5557 5554 5553 5551 5551 5550 5547 5543 5542 5540 5539 5538 5535 5533 5532 5530 5528 5525 5521 5518 5513 5509 5505 5501 5496 5492 5487 5483 5478 5474 5469 5465 5460 5457
5568 5566 5565 5565 5563 5560 5558 5556 5554 5551 5549 5546 5544 5542 5541 5539 5538 5535 5533 5531 5530 5528 5526 5524 5521 5519 5516 5513 5509 5506 5502 5497 5493 5489 5485 5480 5476 5471 5466 5462 5458 5454 5450 5446
5559 5558 5557 5556 5554 5553 5552 5550 5547 5544 5542 5540 5537 5534 5533 5531 5529 5526 5524 5522 5520 5518 5515 5513 5510 5508 5505 5501 5498 5494 5490 5486 5482 5478 5474 5470 5465 5461 5457 5452 5448 5444 5441 5437